Погода в Дальзаводском

Россия / Приморский край     44°09′04″N   132°06′28″E
темп.,
°C
ветер,
м/с
пор.,
м/с
влажн.,
%
обл.,
%
осадки,
мм/ч
давл.,
гПа
погр.,
м
23 апреля, пт
пт2301:00+8ююз91940100 0.0 1025528
04:00+7ю71546100 0.0 1025354
07:00+7ю51149100 0.0 1025304
10:00+11ююз5644100 0.0 1025334
13:00+15ю3338100 0.0 1025475
16:00+18юв2234100 0.0 1023627
19:00+16вюв2240100 0.0 102425
22:00+13св2550100 0.0 1024108
24 апреля, сб
сб2401:00+12ссв2473100 0.0 1024108
04:00+11св1184100 0.0 102316
07:00+10св3787100 0.0 1023305
10:00+6ссв81173100 0.1 1025538
13:00+6ссв71067100 0.3 1025751
16:00+4ссз4768100 2.0 1024602
19:00+6ссв255534 0.3 1023485
22:00+3юз22660 0.3 102331
25 апреля, вс
вс2501:00+3сз11560 0.0 102310
04:00+3з22510 0.0 102111
07:00+3з310589 0.0 1020178
10:00+11ссз711295 0.0 10202190
13:00+12с913258 0.0 10202636
16:00+12с811200 0.0 10202551
19:00+10ссв59250 0.0 10211543
22:00+6ссв22300 0.0 102315
26 апреля, пн
пн2601:00+5юз11300 0.0 102310
04:00+3юз33390 0.0 102344
07:00+3ююз37430 0.0 1022133
10:00+9ююз57285 0.0 1022502
13:00+15ююз56245 0.0 10181442
16:00+15ю99251 0.0 10161202
19:00+10ю1015504 0.0 1016564
22:00+8ю9176698 0.0 1016548
27 апреля, вт
вт2701:00+7ю10178099 0.0 1016527
04:00+7ю91687100 0.0 1015508
07:00+7ю91687100 0.0 1014512
10:00+11ю101474100 0.0 1013696
13:00+11ю101576100 0.0 1011951
16:00+12ююз111471100 0.0 1009776
19:00+9ю81390100 1.2 1009478
22:00+9ю81592100 2.8 1010484